EW0235 Weather Reports


Display with metric or nautical units.
time (UTC)temp
F
wind
direction
speed
MPH
gust
MPH
rain 1hr
in
rain 24hr
in
rain mn
in
humidity
%
barometer
mb
20260509111559 59 237 0.0 0.0 0.00 0.00 0.00 94 1011.8
20260509104558 59 237 0.0 0.0 0.00 0.00 0.00 94 1011.4
20260509103103 59 237 0.0 0.0 0.00 0.00 0.00 94 1011.4
20260509101601 59 237 0.0 0.0 0.00 0.00 0.00 94 1011.4
20260509100055 59 237 0.0 0.0 0.00 0.00 0.00 94 1011.9
20260509094557 59 237 0.0 0.0 0.00 0.00 0.00 94 1012.2
20260509093056 58 237 0.0 0.0 0.00 0.00 0.00 94 1012.2
20260509091624 58 237 0.0 0.0 0.00 0.00 0.00 94 1011.7
20260509090055 58 237 0.0 0.0 0.00 0.00 0.00 94 1011.8
20260509084554 58 237 0.0 0.0 0.00 0.00 0.00 94 1011.8
20260509083055 58 237 0.0 0.0 0.00 0.00 0.00 94 1011.8
20260509081555 58 237 0.0 0.0 0.00 0.00 0.00 94 1011.4
20260509080104 58 237 0.0 0.0 0.00 0.00 0.00 93 1011.7
20260509074554 58 237 0.0 0.0 0.00 0.00 0.00 93 1011.7
20260509073116 58 237 0.0 0.0 0.00 0.00 0.00 92 1011.3
20260509071548 58 237 0.0 0.0 0.00 0.00 0.00 92 1011.3
20260509070048 59 237 0.0 0.0 0.00 0.00 0.00 91 1011.4
20260509064544 59 237 0.0 0.0 0.00 0.00 0.00 91 1011.8
20260509063042 59 237 0.0 0.0 0.00 0.00 0.00 92 1012.1
20260509061539 59 237 0.0 0.0 0.00 0.00 0.00 92 1012.5
20260509060047 59 237 0.0 0.0 0.00 0.00 0.00 92 1012.8
20260509054536 59 237 0.0 0.0 0.00 0.00 0.00 91 1013.1
20260509053036 59 237 0.0 0.0 0.00 0.00 0.00 91 1013.0
20260509051534 59 237 0.0 0.0 0.00 0.00 0.00 90 1012.9
20260509050034 59 237 0.0 0.0 0.00 0.00 0.00 89 1013.0
20260509044536 59 237 0.0 0.0 0.00 0.00 0.00 88 1013.3
20260509043035 59 237 0.0 0.0 0.00 0.00 0.00 88 1013.2
20260509041528 60 237 0.0 0.0 0.00 0.00 0.00 87 1013.2
20260509040025 60 237 0.0 0.0 0.00 0.00 0.00 86 1013.5
20260509034536 61 237 0.0 0.0 0.00 0.00 0.00 84 1013.5
20260509033025 61 237 0.0 0.0 0.00 0.00 0.00 84 1013.8
20260509031524 61 237 0.0 0.0 0.00 0.00 0.00 83 1013.9
20260509030022 62 237 0.0 0.0 0.00 0.00 0.00 82 1013.9
20260509024523 62 237 0.0 0.0 0.00 0.00 0.00 81 1014.0
20260509023022 63 237 0.0 0.0 0.00 0.00 0.00 80 1014.1
20260509021528 63 237 0.0 0.0 0.00 0.00 0.00 79 1014.1
20260509020021 63 237 0.0 0.0 0.00 0.00 0.00 78 1014.1
20260509014521 64 237 0.0 0.0 0.00 0.00 0.00 77 1013.8
20260509013020 64 237 0.0 0.0 0.00 0.00 0.00 77 1014.0
20260509011521 64 237 0.0 0.0 0.00 0.00 0.00 76 1013.7
20260509010029 65 237 0.0 0.0 0.00 0.00 0.00 75 1013.7
20260509004519 65 237 0.0 0.0 0.00 0.00 0.00 74 1013.5
20260509003022 65 237 0.0 0.0 0.00 0.00 0.00 73 1013.9
20260509001519 65 237 0.0 0.0 0.00 0.00 0.00 72 1013.8
20260509000018 66 237 0.0 0.0 0.00 0.00 0.00 72 1013.7
20260508234517 66 237 0.0 0.0 0.00 0.00 0.00 71 1013.7
20260508233017 66 237 0.0 0.0 0.00 0.00 0.00 70 1013.5
20260508231517 67 237 0.0 0.0 0.00 0.00 0.00 70 1013.5
20260508230022 67 237 0.0 0.0 0.00 0.00 0.00 67 1013.3
20260508224518 68 237 0.0 0.0 0.00 0.00 0.00 65 1013.3
20260508223033 68 237 0.0 0.0 0.00 0.00 0.00 66 1013.4
20260508221514 68 237 0.0 0.0 0.00 0.00 0.00 63 1013.6
20260508220019 68 237 0.0 0.0 0.00 0.00 0.00 62 1013.5
20260508214512 68 237 0.0 0.0 0.00 0.00 0.00 61 1013.6
20260508213015 69 360 0.0 0.0 0.00 0.00 0.00 61 1013.5
20260508211511 69 351 0.0 0.0 0.00 0.00 0.00 60 1013.5
20260508210012 69 351 0.0 0.0 0.00 0.00 0.00 60 1013.7
20260508204520 69 352 0.0 0.0 0.00 0.00 0.00 57 1013.6
20260508203010 70 352 0.0 0.0 0.00 0.00 0.00 59 1013.7
20260508201511 70 352 0.0 0.0 0.00 0.00 0.00 60 1013.9
20260508200009 70 352 0.0 0.0 0.00 0.00 0.00 56 1013.5
20260508194507 70 352 0.0 0.0 0.00 0.00 0.00 57 1014.1
20260508193005 70 352 0.0 0.0 0.00 0.00 0.00 56 1014.3
20260508191508 70 42 0.0 0.0 0.00 0.00 0.00 55 1014.5
20260508190005 70 42 0.0 0.0 0.00 0.00 0.00 54 1014.9
20260508184504 70 43 0.0 0.0 0.00 0.00 0.00 53 1015.2
20260508183002 70 199 0.0 0.0 0.00 0.00 0.00 55 1015.2
20260508181501 69 199 0.0 0.0 0.00 0.00 0.00 54 1015.3
20260508174603 69 56 0.0 0.0 0.00 0.00 0.00 56 1015.6
20260508173057 69 20 0.0 0.0 0.00 0.00 0.00 59 1015.9
20260508171557 69 304 0.0 0.0 0.00 0.00 0.00 59 1016.2
20260508170054 69 355 0.0 0.0 0.00 0.00 0.00 60 1016.4
20260508164552 67 331 0.0 0.0 0.00 0.00 0.00 62 1016.7
20260508163049 66 335 0.0 0.0 0.00 0.00 0.00 67 1016.8
20260508161546 65 335 0.0 0.0 0.00 0.00 0.00 66 1017.2
20260508154542 64 34 0.0 0.0 0.00 0.00 0.00 66 1017.6
20260508153045 63 34 0.0 0.0 0.00 0.00 0.00 73 1017.7
20260508151540 63 34 0.0 0.0 0.00 0.00 0.00 74 1017.8
20260508150037 63 34 0.0 0.0 0.00 0.00 0.00 71 1017.8
20260508144532 62 48 0.0 0.0 0.00 0.00 0.00 74 1017.9
20260508143036 61 60 0.0 0.0 0.00 0.00 0.00 77 1017.8
20260508141536 60 360 0.0 0.0 0.00 0.00 0.00 80 1017.7
20260508140023 59 359 0.0 0.0 0.00 0.00 0.00 83 1017.7
20260508134528 57 359 0.0 0.0 0.00 0.04 0.00 89 1017.7
20260508133017 55 359 0.0 0.0 0.00 0.04 0.00 90 1017.9
20260508131514 55 359 0.0 0.0 0.00 0.04 0.00 93 1017.8
20260508130016 54 340 0.0 0.0 0.00 0.04 0.00 96 1017.7
20260508124512 53 340 0.0 0.0 0.00 0.13 0.00 97 1017.5
20260508123012 52 340 0.0 0.0 0.00 0.13 0.00 98 1017.5
20260508121526 51 146 0.0 0.0 0.00 0.13 0.00 98 1017.5
20260508120007 51 146 0.0 0.0 0.00 0.13 0.00 98 1017.3
20260508114504 50 146 0.0 0.0 0.00 0.24 0.00 98 1016.7
20260508113003 49 146 0.0 0.0 0.00 0.24 0.00 97 1016.3